Voltar ao catálogo

METEOR 1-17 DEB

AtivoPO
NORAD 57537·DEBRIS·🇷🇺 Russia

Lançado Apr 24, 1974 de Plesetsk Cosmodrome

Loading…

Próximas Passagens (próximas 24 horas)

TLE

AtualizadoSource: Space-Track

Época: Sep 12, 2026, 02:47 UTC

1 57537U 74025C   26255.11607056  .00004034  00000-0  17153-2 0  9991
2 57537  81.2006 195.8241 0008208 122.0714 238.1263 14.25083646163094

Acompanhe METEOR 1-17 DEB em tempo real com AllMySat

Download on the App Store